Time,TemperatureF,DewpointF,PressureIn,WindDirection,WindDirectionDegrees,WindSpeedMPH,WindSpeedGustMPH,Humidity,HourlyPrecipIn,Conditions,Clouds,dailyrainin,SoftwareType,DateUTC
2013-01-28 00:05:00,36.3,33.6,29.93,SW,219,8.0,10.0,90,0.09,,,0.10,Wunderground v.1.15,2013-01-28 06:05:00,
2013-01-28 00:09:00,36.6,33.9,29.93,South,184,7.0,7.0,90,0.08,,,0.10,Wunderground v.1.15,2013-01-28 06:09:00,
2013-01-28 00:14:00,36.3,33.6,29.93,SSW,201,6.0,7.0,90,0.06,,,0.11,Wunderground v.1.15,2013-01-28 06:14:00,
2013-01-28 00:19:00,36.0,33.4,29.93,South,171,6.0,6.0,90,0.09,,,0.12,Wunderground v.1.15,2013-01-28 06:19:00,
2013-01-28 00:24:00,36.9,34.5,29.93,South,188,6.0,7.0,91,0.09,,,0.12,Wunderground v.1.15,2013-01-28 06:24:00,
2013-01-28 00:29:00,37.3,34.9,29.93,SSW,205,7.0,7.0,91,0.06,,,0.13,Wunderground v.1.15,2013-01-28 06:29:00,
2013-01-28 00:34:00,37.3,34.9,29.92,SSW,194,7.0,7.0,91,0.06,,,0.13,Wunderground v.1.15,2013-01-28 06:34:00,
2013-01-28 00:39:00,37.5,35.4,29.92,SSW,202,6.0,6.0,92,0.07,,,0.14,Wunderground v.1.15,2013-01-28 06:39:00,
2013-01-28 00:44:00,37.6,35.5,29.90,SSW,192,6.0,6.0,92,0.07,,,0.14,Wunderground v.1.15,2013-01-28 06:44:00,
2013-01-28 00:49:00,37.8,35.7,29.90,SSW,196,8.0,8.0,92,0.06,,,0.15,Wunderground v.1.15,2013-01-28 06:49:00,
2013-01-28 00:54:00,37.8,35.7,29.90,South,187,7.0,8.0,92,0.06,,,0.15,Wunderground v.1.15,2013-01-28 06:54:00,
2013-01-28 00:59:00,37.8,35.7,29.89,SSW,192,6.0,10.0,92,0.07,,,0.16,Wunderground v.1.15,2013-01-28 06:59:00,
2013-01-28 01:05:00,37.9,35.8,29.89,SSW,207,6.0,10.0,92,0.07,,,0.17,Wunderground v.1.15,2013-01-28 07:05:00,
2013-01-28 01:10:00,38.0,35.9,29.89,SW,219,7.0,9.0,92,0.07,,,0.17,Wunderground v.1.15,2013-01-28 07:10:00,
2013-01-28 01:19:00,38.3,36.2,29.89,SSW,194,5.0,5.0,92,0.07,,,0.18,Wunderground v.1.15,2013-01-28 07:19:00,
2013-01-28 01:24:00,38.8,36.9,29.89,South,169,5.0,7.0,93,0.08,,,0.19,Wunderground v.1.15,2013-01-28 07:24:00,
2013-01-28 01:29:00,38.6,36.8,29.89,SSW,192,6.0,6.0,93,0.07,,,0.20,Wunderground v.1.15,2013-01-28 07:29:00,
2013-01-28 01:34:00,38.5,36.4,29.88,South,188,6.0,6.0,92,0.10,,,0.21,Wunderground v.1.15,2013-01-28 07:34:00,
2013-01-28 01:39:00,38.3,36.5,29.88,SSW,207,7.0,9.0,93,0.11,,,0.22,Wunderground v.1.15,2013-01-28 07:39:00,
2013-01-28 01:44:00,38.2,36.4,29.88,South,186,8.0,10.0,93,0.12,,,0.23,Wunderground v.1.15,2013-01-28 07:44:00,
2013-01-28 01:49:00,38.2,36.4,29.87,SSW,192,8.0,8.0,93,0.11,,,0.23,Wunderground v.1.15,2013-01-28 07:49:00,
2013-01-28 01:54:00,38.0,36.2,29.87,SW,227,6.0,9.0,93,0.11,,,0.24,Wunderground v.1.15,2013-01-28 07:54:00,
2013-01-28 01:59:00,38.3,36.5,29.87,SSW,197,5.0,6.0,93,0.08,,,0.25,Wunderground v.1.15,2013-01-28 07:59:00,
2013-01-28 02:05:00,38.5,36.7,29.87,South,174,6.0,9.0,93,0.10,,,0.26,Wunderground v.1.15,2013-01-28 08:05:00,
2013-01-28 02:14:00,38.9,37.0,29.87,SSW,192,7.0,7.0,93,0.09,,,0.27,Wunderground v.1.15,2013-01-28 08:14:00,
2013-01-28 02:19:00,38.9,37.0,29.86,SW,215,7.0,7.0,93,0.09,,,0.28,Wunderground v.1.15,2013-01-28 08:19:00,
2013-01-28 02:24:00,39.1,37.2,29.86,South,189,6.0,7.0,93,0.10,,,0.29,Wunderground v.1.15,2013-01-28 08:24:00,
2013-01-28 02:29:00,39.2,37.3,29.86,SSW,194,6.0,6.0,93,0.10,,,0.30,Wunderground v.1.15,2013-01-28 08:29:00,
2013-01-28 02:34:00,39.3,37.4,29.86,SSW,207,5.0,6.0,93,0.09,,,0.31,Wunderground v.1.15,2013-01-28 08:34:00,
2013-01-28 02:39:00,39.8,37.9,29.86,SSW,213,6.0,9.0,93,0.09,,,0.31,Wunderground v.1.15,2013-01-28 08:39:00,
2013-01-28 02:44:00,40.1,38.2,29.86,SSW,195,6.0,13.0,93,0.08,,,0.32,Wunderground v.1.15,2013-01-28 08:44:00,
2013-01-28 02:49:00,40.1,38.2,29.85,SSW,207,6.0,9.0,93,0.10,,,0.33,Wunderground v.1.15,2013-01-28 08:49:00,
2013-01-28 02:54:00,40.6,39.0,29.85,South,188,6.0,11.0,94,0.09,,,0.34,Wunderground v.1.15,2013-01-28 08:54:00,
2013-01-28 02:59:00,40.9,39.3,29.84,SW,218,6.0,6.0,94,0.09,,,0.34,Wunderground v.1.15,2013-01-28 08:59:00,
2013-01-28 03:05:00,41.3,39.7,29.84,SW,233,6.0,6.0,94,0.06,,,0.35,Wunderground v.1.15,2013-01-28 09:05:00,
2013-01-28 03:10:00,41.6,40.0,29.84,SSW,201,6.0,6.0,94,0.06,,,0.35,Wunderground v.1.15,2013-01-28 09:10:00,
2013-01-28 03:14:00,42.1,40.5,29.84,SSW,195,5.0,6.0,94,0.06,,,0.35,Wunderground v.1.15,2013-01-28 09:14:00,
2013-01-28 03:19:00,42.6,41.0,29.83,SW,227,5.0,9.0,94,0.04,,,0.35,Wunderground v.1.15,2013-01-28 09:19:00,
2013-01-28 03:24:00,43.1,41.5,29.83,WSW,240,7.0,9.0,94,0.00,,,0.35,Wunderground v.1.15,2013-01-28 09:24:00,
2013-01-28 03:29:00,43.2,41.6,29.83,SW,231,7.0,7.0,94,0.00,,,0.35,Wunderground v.1.15,2013-01-28 09:29:00,
2013-01-28 03:34:00,43.6,42.0,29.83,SSW,213,6.0,7.0,94,0.00,,,0.35,Wunderground v.1.15,2013-01-28 09:34:00,
2013-01-28 03:39:00,44.2,42.6,29.83,WSW,250,7.0,10.0,94,0.00,,,0.35,Wunderground v.1.15,2013-01-28 09:39:00,
2013-01-28 03:44:00,44.3,42.7,29.82,WSW,240,7.0,18.0,94,0.00,,,0.35,Wunderground v.1.15,2013-01-28 09:44:00,
2013-01-28 03:49:00,44.5,42.9,29.82,WSW,246,8.0,9.0,94,0.00,,,0.35,Wunderground v.1.15,2013-01-28 09:49:00,
2013-01-28 03:55:00,44.6,42.7,29.82,SW,221,7.0,9.0,93,0.00,,,0.35,Wunderground v.1.15,2013-01-28 09:55:00,
2013-01-28 04:04:00,44.9,43.0,29.82,WSW,238,9.0,10.0,93,0.00,,,0.36,Wunderground v.1.15,2013-01-28 10:04:00,
2013-01-28 04:09:00,44.6,42.7,29.82,SSW,207,9.0,9.0,93,0.00,,,0.36,Wunderground v.1.15,2013-01-28 10:09:00,
2013-01-28 04:14:00,44.3,42.4,29.82,SSW,210,7.0,9.0,93,0.00,,,0.36,Wunderground v.1.15,2013-01-28 10:14:00,
2013-01-28 04:19:00,44.3,42.4,29.81,SW,221,6.0,6.0,93,0.00,,,0.36,Wunderground v.1.15,2013-01-28 10:19:00,
2013-01-28 04:24:00,44.5,42.6,29.81,SSW,209,6.0,6.0,93,0.00,,,0.36,Wunderground v.1.15,2013-01-28 10:24:00,
2013-01-28 04:29:00,44.5,42.6,29.81,South,189,5.0,7.0,93,0.00,,,0.36,Wunderground v.1.15,2013-01-28 10:29:00,
2013-01-28 04:34:00,44.5,42.6,29.81,SSW,199,6.0,9.0,93,0.00,,,0.36,Wunderground v.1.15,2013-01-28 10:34:00,
2013-01-28 04:39:00,44.9,43.0,29.81,SW,229,7.0,7.0,93,0.00,,,0.36,Wunderground v.1.15,2013-01-28 10:39:00,
2013-01-28 04:44:00,45.1,43.2,29.81,SSW,213,7.0,8.0,93,0.00,,,0.36,Wunderground v.1.15,2013-01-28 10:44:00,
2013-01-28 04:49:00,45.2,43.3,29.81,SSW,208,7.0,7.0,93,0.00,,,0.36,Wunderground v.1.15,2013-01-28 10:49:00,
2013-01-28 04:55:00,45.5,43.6,29.81,SW,228,7.0,14.0,93,0.00,,,0.36,Wunderground v.1.15,2013-01-28 10:55:00,
2013-01-28 05:00:00,45.5,43.6,29.80,WSW,238,8.0,8.0,93,0.00,,,0.36,Wunderground v.1.15,2013-01-28 11:00:00,
2013-01-28 05:09:00,45.2,43.3,29.80,SW,220,6.0,6.0,93,0.00,,,0.36,Wunderground v.1.15,2013-01-28 11:09:00,
2013-01-28 05:14:00,45.2,43.3,29.79,SSW,192,6.0,6.0,93,0.00,,,0.36,Wunderground v.1.15,2013-01-28 11:14:00,
2013-01-28 05:19:00,45.2,43.3,29.79,SSW,202,6.0,6.0,93,0.00,,,0.36,Wunderground v.1.15,2013-01-28 11:19:00,
2013-01-28 05:24:00,45.2,43.3,29.79,SW,216,6.0,6.0,93,0.00,,,0.36,Wunderground v.1.15,2013-01-28 11:24:00,
2013-01-28 05:29:00,45.2,43.3,29.79,SSW,199,6.0,7.0,93,0.00,,,0.36,Wunderground v.1.15,2013-01-28 11:29:00,
2013-01-28 05:34:00,45.2,43.3,29.79,SSW,207,6.0,7.0,93,0.00,,,0.36,Wunderground v.1.15,2013-01-28 11:34:00,
2013-01-28 05:40:00,45.4,43.5,29.79,SW,217,5.0,5.0,93,0.00,,,0.37,Wunderground v.1.15,2013-01-28 11:40:00,
2013-01-28 05:45:00,45.4,43.5,29.79,SW,226,5.0,7.0,93,0.16,,,0.38,Wunderground v.1.15,2013-01-28 11:45:00,
2013-01-28 05:50:00,45.4,43.5,29.79,SW,228,5.0,8.0,93,0.14,,,0.39,Wunderground v.1.15,2013-01-28 11:50:00,
2013-01-28 05:59:00,45.5,43.6,29.79,SSW,192,6.0,6.0,93,0.07,,,0.40,Wunderground v.1.15,2013-01-28 11:59:00,
2013-01-28 06:04:00,45.7,43.8,29.79,SW,218,5.0,6.0,93,0.05,,,0.40,Wunderground v.1.15,2013-01-28 12:04:00,
2013-01-28 06:09:00,45.8,43.9,29.79,SW,227,5.0,6.0,93,0.00,,,0.40,Wunderground v.1.15,2013-01-28 12:09:00,
2013-01-28 06:14:00,45.8,43.9,29.79,South,189,4.0,6.0,93,0.00,,,0.40,Wunderground v.1.15,2013-01-28 12:14:00,
2013-01-28 06:19:00,46.1,44.5,29.79,SSW,211,5.0,6.0,94,0.00,,,0.40,Wunderground v.1.15,2013-01-28 12:19:00,
2013-01-28 06:24:00,46.1,44.5,29.79,WSW,250,5.0,6.0,94,0.00,,,0.40,Wunderground v.1.15,2013-01-28 12:24:00,
2013-01-28 06:29:00,46.5,44.9,29.79,SSW,205,5.0,8.0,94,0.00,,,0.40,Wunderground v.1.15,2013-01-28 12:29:00,
2013-01-28 06:34:00,46.8,45.2,29.79,SW,233,5.0,8.0,94,0.00,,,0.40,Wunderground v.1.15,2013-01-28 12:34:00,
2013-01-28 06:39:00,47.3,45.7,29.79,West,260,5.0,9.0,94,0.00,,,0.40,Wunderground v.1.15,2013-01-28 12:39:00,
2013-01-28 06:44:00,47.6,46.0,29.79,SW,219,5.0,9.0,94,0.00,,,0.40,Wunderground v.1.15,2013-01-28 12:44:00,
2013-01-28 06:49:00,47.7,46.1,29.79,SW,232,6.0,6.0,94,0.00,,,0.40,Wunderground v.1.15,2013-01-28 12:49:00,
2013-01-28 06:55:00,47.7,46.1,29.79,WSW,238,6.0,6.0,94,0.00,,,0.40,Wunderground v.1.15,2013-01-28 12:55:00,
2013-01-28 07:00:00,48.0,46.4,29.80,WSW,243,7.0,10.0,94,0.00,,,0.40,Wunderground v.1.15,2013-01-28 13:00:00,
2013-01-28 07:09:00,48.0,46.4,29.80,SW,219,8.0,8.0,94,0.00,,,0.40,Wunderground v.1.15,2013-01-28 13:09:00,
2013-01-28 07:14:00,48.2,46.6,29.80,WSW,258,7.0,8.0,94,0.00,,,0.40,Wunderground v.1.15,2013-01-28 13:14:00,
2013-01-28 07:19:00,48.3,46.7,29.80,WSW,244,7.0,7.0,94,0.00,,,0.40,Wunderground v.1.15,2013-01-28 13:19:00,
2013-01-28 07:24:00,48.3,46.7,29.80,WSW,258,7.0,7.0,94,0.00,,,0.40,Wunderground v.1.15,2013-01-28 13:24:00,
2013-01-28 07:29:00,48.3,46.7,29.80,WSW,249,6.0,6.0,94,0.00,,,0.40,Wunderground v.1.15,2013-01-28 13:29:00,
2013-01-28 07:34:00,48.3,46.7,29.80,West,267,7.0,14.0,94,0.00,,,0.40,Wunderground v.1.15,2013-01-28 13:34:00,
2013-01-28 07:39:00,48.5,46.9,29.80,SSW,205,8.0,8.0,94,0.00,,,0.40,Wunderground v.1.15,2013-01-28 13:39:00,
2013-01-28 07:45:00,48.5,46.9,29.81,WSW,254,8.0,8.0,94,0.00,,,0.41,Wunderground v.1.15,2013-01-28 13:45:00,
2013-01-28 07:50:00,48.3,46.7,29.81,WSW,244,7.0,7.0,94,0.00,,,0.41,Wunderground v.1.15,2013-01-28 13:50:00,
2013-01-28 07:55:00,48.3,46.7,29.81,SW,230,6.0,7.0,94,0.00,,,0.41,Wunderground v.1.15,2013-01-28 13:55:00,
2013-01-28 08:00:00,48.6,47.0,29.81,SW,236,6.0,9.0,94,0.00,,,0.41,Wunderground v.1.15,2013-01-28 14:00:00,
2013-01-28 08:04:00,48.5,46.9,29.81,WSW,241,7.0,9.0,94,0.00,,,0.41,Wunderground v.1.15,2013-01-28 14:04:00,
2013-01-28 08:09:00,48.6,47.0,29.81,West,279,7.0,10.0,94,0.00,,,0.41,Wunderground v.1.15,2013-01-28 14:09:00,
2013-01-28 08:14:00,48.8,47.2,29.81,WSW,240,8.0,10.0,94,0.00,,,0.41,Wunderground v.1.15,2013-01-28 14:14:00,
2013-01-28 08:24:00,48.8,47.2,29.81,WSW,247,8.0,8.0,94,0.00,,,0.41,Wunderground v.1.15,2013-01-28 14:24:00,
2013-01-28 08:29:00,48.8,47.2,29.82,WSW,257,7.0,9.0,94,0.00,,,0.41,Wunderground v.1.15,2013-01-28 14:29:00,
2013-01-28 08:34:00,48.9,47.2,29.82,SW,231,7.0,9.0,94,0.00,,,0.41,Wunderground v.1.15,2013-01-28 14:34:00,
2013-01-28 08:39:00,49.1,47.4,29.82,West,261,8.0,8.0,94,0.00,,,0.41,Wunderground v.1.15,2013-01-28 14:39:00,
2013-01-28 08:45:00,49.1,47.4,29.82,WSW,239,8.0,12.0,94,0.00,,,0.41,Wunderground v.1.15,2013-01-28 14:45:00,
2013-01-28 08:50:00,49.4,48.0,29.82,WSW,250,9.0,13.0,95,0.00,,,0.41,Wunderground v.1.15,2013-01-28 14:50:00,
2013-01-28 08:59:00,49.5,48.1,29.82,West,259,10.0,10.0,95,0.00,,,0.41,Wunderground v.1.15,2013-01-28 14:59:00,
2013-01-28 09:09:00,49.4,48.0,29.83,West,277,11.0,11.0,95,0.00,,,0.41,Wunderground v.1.15,2013-01-28 15:09:00,
2013-01-28 09:14:00,49.2,47.8,29.83,West,263,11.0,13.0,95,0.00,,,0.41,Wunderground v.1.15,2013-01-28 15:14:00,
2013-01-28 09:19:00,48.9,47.5,29.83,West,265,12.0,12.0,95,0.00,,,0.41,Wunderground v.1.15,2013-01-28 15:19:00,
2013-01-28 09:24:00,48.8,47.4,29.83,SW,225,12.0,13.0,95,0.00,,,0.41,Wunderground v.1.15,2013-01-28 15:24:00,
2013-01-28 09:29:00,48.8,47.4,29.83,WSW,244,11.0,11.0,95,0.00,,,0.41,Wunderground v.1.15,2013-01-28 15:29:00,
2013-01-28 09:34:00,48.6,47.2,29.83,WSW,253,10.0,11.0,95,0.00,,,0.41,Wunderground v.1.15,2013-01-28 15:34:00,
2013-01-28 09:40:00,48.6,47.2,29.83,West,259,10.0,11.0,95,0.00,,,0.41,Wunderground v.1.15,2013-01-28 15:40:00,
2013-01-28 09:44:00,48.5,47.1,29.83,WSW,238,11.0,11.0,95,0.00,,,0.41,Wunderground v.1.15,2013-01-28 15:44:00,
2013-01-28 09:49:00,48.6,47.2,29.83,West,279,12.0,12.0,95,0.00,,,0.41,Wunderground v.1.15,2013-01-28 15:49:00,
2013-01-28 09:54:00,48.5,47.1,29.83,West,272,12.0,12.0,95,0.00,,,0.41,Wunderground v.1.15,2013-01-28 15:54:00,
2013-01-28 09:59:00,48.3,46.9,29.84,West,259,12.0,19.0,95,0.00,,,0.41,Wunderground v.1.15,2013-01-28 15:59:00,
2013-01-28 10:05:00,48.3,46.9,29.84,West,263,12.0,19.0,95,0.00,,,0.41,Wunderground v.1.15,2013-01-28 16:05:00,
2013-01-28 10:14:00,47.6,46.2,29.84,WNW,283,12.0,19.0,95,0.00,,,0.41,Wunderground v.1.15,2013-01-28 16:14:00,
2013-01-28 10:19:00,47.3,45.9,29.85,West,261,12.0,12.0,95,0.00,,,0.41,Wunderground v.1.15,2013-01-28 16:19:00,
2013-01-28 10:24:00,47.1,45.7,29.85,WSW,250,12.0,12.0,95,0.00,,,0.41,Wunderground v.1.15,2013-01-28 16:24:00,
2013-01-28 10:29:00,46.8,45.4,29.85,West,267,13.0,13.0,95,0.00,,,0.41,Wunderground v.1.15,2013-01-28 16:29:00,
2013-01-28 10:34:00,46.7,45.3,29.86,WSW,254,12.0,14.0,95,0.00,,,0.41,Wunderground v.1.15,2013-01-28 16:34:00,
2013-01-28 10:39:00,46.5,45.1,29.86,West,269,11.0,11.0,95,0.00,,,0.41,Wunderground v.1.15,2013-01-28 16:39:00,
2013-01-28 10:44:00,46.5,45.1,29.86,West,269,11.0,12.0,95,0.00,,,0.41,Wunderground v.1.15,2013-01-28 16:44:00,
2013-01-28 10:49:00,46.2,44.8,29.86,West,265,10.0,10.0,95,0.00,,,0.41,Wunderground v.1.15,2013-01-28 16:49:00,
2013-01-28 10:54:00,45.8,44.4,29.86,West,281,10.0,14.0,95,0.00,,,0.41,Wunderground v.1.15,2013-01-28 16:54:00,
2013-01-28 10:59:00,45.8,44.4,29.86,WSW,256,9.0,11.0,95,0.00,,,0.41,Wunderground v.1.15,2013-01-28 16:59:00,
2013-01-28 11:05:00,45.7,44.4,29.86,West,260,8.0,11.0,95,0.00,,,0.41,Wunderground v.1.15,2013-01-28 17:05:00,
2013-01-28 11:09:00,45.7,44.4,29.86,West,267,8.0,8.0,95,0.00,,,0.41,Wunderground v.1.15,2013-01-28 17:09:00,
2013-01-28 11:14:00,45.4,44.1,29.86,West,269,8.0,8.0,95,0.00,,,0.41,Wunderground v.1.15,2013-01-28 17:14:00,
2013-01-28 11:19:00,44.8,43.5,29.86,WNW,288,7.0,7.0,95,0.00,,,0.41,Wunderground v.1.15,2013-01-28 17:19:00,
2013-01-28 11:24:00,43.6,42.3,29.86,West,277,6.0,7.0,95,0.00,,,0.41,Wunderground v.1.15,2013-01-28 17:24:00,
2013-01-28 11:29:00,43.3,42.0,29.86,WNW,298,5.0,5.0,95,0.00,,,0.41,Wunderground v.1.15,2013-01-28 17:29:00,
2013-01-28 11:34:00,43.3,42.0,29.87,NW,311,5.0,5.0,95,0.00,,,0.41,Wunderground v.1.15,2013-01-28 17:34:00,
2013-01-28 11:39:00,43.3,42.0,29.87,NW,314,4.0,4.0,95,0.00,,,0.41,Wunderground v.1.15,2013-01-28 17:39:00,
2013-01-28 11:44:00,43.2,41.9,29.87,NNW,327,4.0,7.0,95,0.00,,,0.41,Wunderground v.1.15,2013-01-28 17:44:00,
2013-01-28 11:49:00,43.1,41.8,29.87,NW,307,6.0,6.0,95,0.00,,,0.41,Wunderground v.1.15,2013-01-28 17:49:00,
2013-01-28 11:54:00,43.1,41.8,29.87,NNW,327,6.0,6.0,95,0.00,,,0.41,Wunderground v.1.15,2013-01-28 17:54:00,
2013-01-28 11:59:00,43.1,41.8,29.87,NNW,334,5.0,6.0,95,0.00,,,0.41,Wunderground v.1.15,2013-01-28 17:59:00,
2013-01-28 12:04:00,42.9,41.6,29.87,NNW,340,5.0,6.0,95,0.00,,,0.41,Wunderground v.1.15,2013-01-28 18:04:00,
2013-01-28 12:09:00,42.9,41.6,29.87,NW,323,6.0,6.0,95,0.00,,,0.41,Wunderground v.1.15,2013-01-28 18:09:00,
2013-01-28 12:15:00,42.8,41.5,29.87,NNW,336,6.0,6.0,95,0.00,,,0.41,Wunderground v.1.15,2013-01-28 18:15:00,
2013-01-28 12:20:00,42.8,41.5,29.87,NNW,336,6.0,6.0,95,0.00,,,0.41,Wunderground v.1.15,2013-01-28 18:20:00,
2013-01-28 12:25:00,42.8,41.5,29.87,NNW,330,6.0,6.0,95,0.00,,,0.41,Wunderground v.1.15,2013-01-28 18:25:00,
2013-01-28 12:30:00,42.6,41.5,29.87,NNW,338,6.0,8.0,96,0.00,,,0.41,Wunderground v.1.15,2013-01-28 18:30:00,
2013-01-28 12:39:00,42.6,41.5,29.87,NNW,329,5.0,5.0,96,0.00,,,0.41,Wunderground v.1.15,2013-01-28 18:39:00,
2013-01-28 12:44:00,42.6,41.5,29.87,NNW,332,4.0,7.0,96,0.00,,,0.41,Wunderground v.1.15,2013-01-28 18:44:00,
2013-01-28 12:49:00,42.6,41.5,29.87,NNW,331,5.0,5.0,96,0.00,,,0.41,Wunderground v.1.15,2013-01-28 18:49:00,
2013-01-28 12:54:00,42.5,41.4,29.87,NNW,333,5.0,9.0,96,0.00,,,0.41,Wunderground v.1.15,2013-01-28 18:54:00,
2013-01-28 12:59:00,42.3,41.2,29.87,NNW,331,6.0,7.0,96,0.00,,,0.41,Wunderground v.1.15,2013-01-28 18:59:00,
2013-01-28 13:04:00,42.2,41.1,29.87,NNW,338,6.0,7.0,96,0.00,,,0.41,Wunderground v.1.15,2013-01-28 19:04:00,
2013-01-28 13:09:00,41.9,40.8,29.87,North,355,6.0,7.0,96,0.00,,,0.41,Wunderground v.1.15,2013-01-28 19:09:00,
2013-01-28 13:14:00,41.6,40.5,29.87,North,355,7.0,8.0,96,0.00,,,0.41,Wunderground v.1.15,2013-01-28 19:14:00,
2013-01-28 13:20:00,41.5,40.4,29.87,NNW,345,7.0,7.0,96,0.00,,,0.41,Wunderground v.1.15,2013-01-28 19:20:00,
2013-01-28 13:25:00,41.3,40.0,29.87,NNW,344,6.0,7.0,95,0.00,,,0.41,Wunderground v.1.15,2013-01-28 19:25:00,
2013-01-28 13:30:00,41.2,39.9,29.88,NNW,344,5.0,6.0,95,0.00,,,0.41,Wunderground v.1.15,2013-01-28 19:30:00,
2013-01-28 13:35:00,41.1,39.8,29.88,NNW,344,6.0,6.0,95,0.00,,,0.41,Wunderground v.1.15,2013-01-28 19:35:00,
2013-01-28 13:39:00,41.1,39.8,29.88,NNW,344,7.0,7.0,95,0.00,,,0.41,Wunderground v.1.15,2013-01-28 19:39:00,
2013-01-28 13:44:00,41.1,39.8,29.88,North,355,7.0,7.0,95,0.00,,,0.41,Wunderground v.1.15,2013-01-28 19:44:00,
2013-01-28 13:49:00,41.1,39.8,29.88,North,355,6.0,7.0,95,0.00,,,0.41,Wunderground v.1.15,2013-01-28 19:49:00,
2013-01-28 13:54:00,40.9,39.6,29.88,North,355,6.0,7.0,95,0.00,,,0.41,Wunderground v.1.15,2013-01-28 19:54:00,
2013-01-28 13:59:00,40.9,39.6,29.88,North,355,5.0,5.0,95,0.00,,,0.41,Wunderground v.1.15,2013-01-28 19:59:00,
2013-01-28 14:04:00,40.9,39.6,29.87,North,360,5.0,5.0,95,0.00,,,0.41,Wunderground v.1.15,2013-01-28 20:04:00,
2013-01-28 14:10:00,40.8,39.5,29.87,North,360,5.0,5.0,95,0.00,,,0.41,Wunderground v.1.15,2013-01-28 20:10:00,
2013-01-28 14:15:00,40.6,39.3,29.88,North,360,4.0,5.0,95,0.00,,,0.41,Wunderground v.1.15,2013-01-28 20:15:00,
2013-01-28 14:20:00,40.6,39.3,29.88,North,355,4.0,4.0,95,0.00,,,0.41,Wunderground v.1.15,2013-01-28 20:20:00,
2013-01-28 14:25:00,40.6,39.3,29.88,North,360,4.0,4.0,95,0.00,,,0.41,Wunderground v.1.15,2013-01-28 20:25:00,
2013-01-28 14:29:00,40.6,39.3,29.88,North,360,4.0,4.0,95,0.00,,,0.41,Wunderground v.1.15,2013-01-28 20:29:00,
2013-01-28 14:34:00,40.6,39.3,29.88,North,355,4.0,5.0,95,0.00,,,0.41,Wunderground v.1.15,2013-01-28 20:34:00,
2013-01-28 14:39:00,40.5,39.2,29.88,North,355,4.0,4.0,95,0.00,,,0.41,Wunderground v.1.15,2013-01-28 20:39:00,
2013-01-28 14:44:00,40.5,39.2,29.88,North,5,5.0,5.0,95,0.00,,,0.41,Wunderground v.1.15,2013-01-28 20:44:00,
2013-01-28 14:49:00,40.5,39.2,29.89,North,5,4.0,4.0,95,0.00,,,0.41,Wunderground v.1.15,2013-01-28 20:49:00,
2013-01-28 14:54:00,40.5,39.2,29.89,North,5,3.0,4.0,95,0.00,,,0.41,Wunderground v.1.15,2013-01-28 20:54:00,
2013-01-28 14:59:00,40.3,39.0,29.89,North,5,3.0,4.0,95,0.00,,,0.41,Wunderground v.1.15,2013-01-28 20:59:00,
2013-01-28 15:05:00,40.2,38.9,29.90,North,5,4.0,4.0,95,0.00,,,0.41,Wunderground v.1.15,2013-01-28 21:05:00,
2013-01-28 15:10:00,40.2,38.6,29.90,North,5,3.0,4.0,94,0.00,,,0.41,Wunderground v.1.15,2013-01-28 21:10:00,
2013-01-28 15:15:00,40.2,38.6,29.91,North,5,3.0,4.0,94,0.00,,,0.41,Wunderground v.1.15,2013-01-28 21:15:00,
2013-01-28 15:20:00,40.2,38.6,29.91,North,5,3.0,3.0,94,0.00,,,0.41,Wunderground v.1.15,2013-01-28 21:20:00,
2013-01-28 15:24:00,40.2,38.6,29.91,North,5,3.0,3.0,94,0.00,,,0.41,Wunderground v.1.15,2013-01-28 21:24:00,
2013-01-28 15:29:00,40.1,38.5,29.91,North,5,2.0,3.0,94,0.00,,,0.41,Wunderground v.1.15,2013-01-28 21:29:00,
2013-01-28 15:34:00,39.9,38.3,29.91,North,5,3.0,3.0,94,0.00,,,0.41,Wunderground v.1.15,2013-01-28 21:34:00,
2013-01-28 15:39:00,39.9,38.3,29.91,North,5,3.0,3.0,94,0.00,,,0.41,Wunderground v.1.15,2013-01-28 21:39:00,
2013-01-28 15:44:00,39.8,38.2,29.91,North,5,3.0,3.0,94,0.00,,,0.41,Wunderground v.1.15,2013-01-28 21:44:00,
2013-01-28 15:49:00,39.6,38.0,29.91,North,5,3.0,5.0,94,0.00,,,0.41,Wunderground v.1.15,2013-01-28 21:49:00,
2013-01-28 15:54:00,39.6,38.0,29.91,North,5,3.0,5.0,94,0.00,,,0.41,Wunderground v.1.15,2013-01-28 21:54:00,
2013-01-28 15:59:00,39.5,37.6,29.91,North,9,3.0,3.0,93,0.00,,,0.41,Wunderground v.1.15,2013-01-28 21:59:00,
2013-01-28 16:09:00,39.5,37.6,29.91,North,9,2.0,2.0,93,0.00,,,0.41,Wunderground v.1.15,2013-01-28 22:09:00,
2013-01-28 16:14:00,39.3,37.4,29.91,North,9,2.0,2.0,93,0.00,,,0.41,Wunderground v.1.15,2013-01-28 22:14:00,
2013-01-28 16:19:00,39.3,37.4,29.91,North,9,2.0,2.0,93,0.00,,,0.41,Wunderground v.1.15,2013-01-28 22:19:00,
2013-01-28 16:24:00,39.3,37.4,29.91,North,11,1.0,2.0,93,0.00,,,0.41,Wunderground v.1.15,2013-01-28 22:24:00,
2013-01-28 16:34:00,39.2,37.3,29.91,North,11,1.0,3.0,93,0.00,,,0.41,Wunderground v.1.15,2013-01-28 22:34:00,
2013-01-28 16:39:00,39.2,37.3,29.91,North,11,1.0,1.0,93,0.00,,,0.41,Wunderground v.1.15,2013-01-28 22:39:00,
2013-01-28 16:44:00,39.1,37.2,29.91,North,11,0.0,1.0,93,0.00,,,0.41,Wunderground v.1.15,2013-01-28 22:44:00,
2013-01-28 16:49:00,39.1,37.2,29.91,North,11,1.0,2.0,93,0.00,,,0.41,Wunderground v.1.15,2013-01-28 22:49:00,
2013-01-28 16:54:00,39.1,37.0,29.91,North,11,0.0,2.0,92,0.00,,,0.41,Wunderground v.1.15,2013-01-28 22:54:00,
2013-01-28 16:59:00,39.1,37.0,29.91,North,11,0.0,0.0,92,0.00,,,0.41,Wunderground v.1.15,2013-01-28 22:59:00,
2013-01-28 17:05:00,38.9,36.8,29.92,North,11,0.0,0.0,92,0.00,,,0.41,Wunderground v.1.15,2013-01-28 23:05:00,
2013-01-28 17:10:00,38.9,36.8,29.92,North,11,0.0,1.0,92,0.00,,,0.41,Wunderground v.1.15,2013-01-28 23:10:00,
2013-01-28 17:14:00,38.9,36.8,29.92,North,11,0.0,1.0,92,0.00,,,0.41,Wunderground v.1.15,2013-01-28 23:14:00,
2013-01-28 17:19:00,38.9,36.8,29.92,North,11,0.0,0.0,92,0.00,,,0.41,Wunderground v.1.15,2013-01-28 23:19:00,
2013-01-28 17:24:00,38.9,36.8,29.92,North,11,0.0,0.0,92,0.00,,,0.41,Wunderground v.1.15,2013-01-28 23:24:00,
2013-01-28 17:29:00,38.9,36.8,29.92,North,11,0.0,0.0,92,0.00,,,0.41,Wunderground v.1.15,2013-01-28 23:29:00,
2013-01-28 17:34:00,38.8,36.7,29.92,North,11,0.0,1.0,92,0.00,,,0.41,Wunderground v.1.15,2013-01-28 23:34:00,
2013-01-28 17:39:00,38.8,36.7,29.92,North,11,1.0,1.0,92,0.00,,,0.41,Wunderground v.1.15,2013-01-28 23:39:00,
2013-01-28 17:44:00,38.8,36.4,29.92,North,11,1.0,1.0,91,0.00,,,0.41,Wunderground v.1.15,2013-01-28 23:44:00,
2013-01-28 17:49:00,38.8,36.4,29.93,North,11,1.0,1.0,91,0.00,,,0.41,Wunderground v.1.15,2013-01-28 23:49:00,
2013-01-28 17:54:00,38.6,36.2,29.93,North,11,1.0,1.0,91,0.00,,,0.41,Wunderground v.1.15,2013-01-28 23:54:00,
2013-01-28 17:59:00,38.6,36.2,29.93,North,11,0.0,1.0,91,0.00,,,0.41,Wunderground v.1.15,2013-01-28 23:59:00,
2013-01-28 18:04:00,38.6,36.2,29.94,North,11,0.0,1.0,91,0.00,,,0.41,Wunderground v.1.15,2013-01-29 00:04:00,
2013-01-28 18:09:00,38.6,36.2,29.94,North,11,1.0,1.0,91,0.00,,,0.41,Wunderground v.1.15,2013-01-29 00:09:00,
2013-01-28 18:14:00,38.6,36.2,29.93,North,11,1.0,1.0,91,0.00,,,0.41,Wunderground v.1.15,2013-01-29 00:14:00,
2013-01-28 18:19:00,38.6,36.2,29.93,North,11,1.0,1.0,91,0.00,,,0.41,Wunderground v.1.15,2013-01-29 00:19:00,
2013-01-28 18:25:00,38.5,36.1,29.93,NNE,17,1.0,1.0,91,0.00,,,0.41,Wunderground v.1.15,2013-01-29 00:25:00,
2013-01-28 18:30:00,38.5,36.1,29.94,NNE,19,1.0,2.0,91,0.00,,,0.41,Wunderground v.1.15,2013-01-29 00:30:00,
2013-01-28 18:35:00,38.5,36.1,29.94,NNE,19,1.0,2.0,91,0.00,,,0.41,Wunderground v.1.15,2013-01-29 00:35:00,
2013-01-28 18:40:00,38.3,35.9,29.94,NNE,20,0.0,1.0,91,0.00,,,0.41,Wunderground v.1.15,2013-01-29 00:40:00,
2013-01-28 18:44:00,38.3,35.9,29.94,NNE,20,0.0,3.0,91,0.00,,,0.41,Wunderground v.1.15,2013-01-29 00:44:00,
2013-01-28 18:49:00,38.2,35.8,29.93,NNE,21,0.0,0.0,91,0.00,,,0.41,Wunderground v.1.15,2013-01-29 00:49:00,
2013-01-28 18:54:00,38.2,35.8,29.93,NNE,23,1.0,1.0,91,0.00,,,0.41,Wunderground v.1.15,2013-01-29 00:54:00,
2013-01-28 18:59:00,38.2,35.8,29.93,NNE,28,1.0,2.0,91,0.00,,,0.41,Wunderground v.1.15,2013-01-29 00:59:00,
2013-01-28 19:04:00,38.0,35.6,29.93,NNE,32,2.0,2.0,91,0.00,,,0.41,Wunderground v.1.15,2013-01-29 01:04:00,
2013-01-28 19:10:00,38.0,35.6,29.93,NE,36,2.0,3.0,91,0.00,,,0.41,Wunderground v.1.15,2013-01-29 01:10:00,
2013-01-28 19:15:00,37.9,35.5,29.93,NE,36,1.0,3.0,91,0.00,,,0.41,Wunderground v.1.15,2013-01-29 01:15:00,
2013-01-28 19:24:00,37.9,35.5,29.93,NE,42,2.0,2.0,91,0.00,,,0.41,Wunderground v.1.15,2013-01-29 01:24:00,
2013-01-28 19:29:00,37.8,35.7,29.93,NE,55,1.0,2.0,92,0.00,,,0.41,Wunderground v.1.15,2013-01-29 01:29:00,
2013-01-28 19:34:00,37.8,35.7,29.93,NE,55,1.0,2.0,92,0.00,,,0.41,Wunderground v.1.15,2013-01-29 01:34:00,
2013-01-28 19:39:00,37.6,35.5,29.93,ENE,69,2.0,4.0,92,0.00,,,0.41,Wunderground v.1.15,2013-01-29 01:39:00,
2013-01-28 19:44:00,37.6,35.5,29.93,ENE,69,2.0,4.0,92,0.00,,,0.41,Wunderground v.1.15,2013-01-29 01:44:00,
2013-01-28 19:49:00,37.5,35.4,29.93,ENE,69,2.0,2.0,92,0.00,,,0.41,Wunderground v.1.15,2013-01-29 01:49:00,
2013-01-28 19:54:00,37.5,35.4,29.93,ENE,73,3.0,3.0,92,0.00,,,0.41,Wunderground v.1.15,2013-01-29 01:54:00,
2013-01-28 19:59:00,37.5,35.4,29.93,ENE,74,2.0,2.0,92,0.00,,,0.41,Wunderground v.1.15,2013-01-29 01:59:00,
2013-01-28 20:05:00,37.3,35.2,29.93,ENE,77,2.0,2.0,92,0.00,,,0.41,Wunderground v.1.15,2013-01-29 02:05:00,
2013-01-28 20:09:00,37.3,35.2,29.93,East,82,2.0,2.0,92,0.00,,,0.41,Wunderground v.1.15,2013-01-29 02:09:00,
2013-01-28 20:14:00,37.3,35.5,29.93,East,82,2.0,2.0,93,0.00,,,0.41,Wunderground v.1.15,2013-01-29 02:14:00,
2013-01-28 20:19:00,37.3,35.5,29.92,East,101,2.0,3.0,93,0.00,,,0.41,Wunderground v.1.15,2013-01-29 02:19:00,
2013-01-28 20:24:00,37.2,35.4,29.92,East,101,2.0,3.0,93,0.00,,,0.41,Wunderground v.1.15,2013-01-29 02:24:00,
2013-01-28 20:29:00,37.2,35.4,29.92,ESE,105,3.0,4.0,93,0.00,,,0.41,Wunderground v.1.15,2013-01-29 02:29:00,
2013-01-28 20:35:00,37.2,35.4,29.92,ESE,105,3.0,4.0,93,0.00,,,0.41,Wunderground v.1.15,2013-01-29 02:35:00,
2013-01-28 20:40:00,37.2,35.4,29.92,ESE,105,3.0,3.0,93,0.00,,,0.41,Wunderground v.1.15,2013-01-29 02:40:00,
2013-01-28 20:45:00,37.2,35.4,29.93,ESE,105,1.0,3.0,93,0.00,,,0.41,Wunderground v.1.15,2013-01-29 02:45:00,
2013-01-28 20:50:00,37.2,35.4,29.93,ESE,105,2.0,2.0,93,0.00,,,0.41,Wunderground v.1.15,2013-01-29 02:50:00,
2013-01-28 20:59:00,37.0,35.2,29.93,ESE,116,2.0,4.0,93,0.00,,,0.41,Wunderground v.1.15,2013-01-29 02:59:00,
2013-01-28 21:04:00,37.0,35.2,29.92,SE,131,3.0,5.0,93,0.00,,,0.41,Wunderground v.1.15,2013-01-29 03:04:00,
2013-01-28 21:09:00,37.0,35.2,29.92,SE,128,4.0,4.0,93,0.00,,,0.41,Wunderground v.1.15,2013-01-29 03:09:00,
2013-01-28 21:14:00,37.0,35.2,29.91,ESE,119,3.0,4.0,93,0.00,,,0.41,Wunderground v.1.15,2013-01-29 03:14:00,
2013-01-28 21:19:00,37.0,35.2,29.91,ESE,115,3.0,3.0,93,0.00,,,0.41,Wunderground v.1.15,2013-01-29 03:19:00,
2013-01-28 21:24:00,37.0,35.2,29.91,SE,130,2.0,3.0,93,0.00,,,0.41,Wunderground v.1.15,2013-01-29 03:24:00,
2013-01-28 21:30:00,37.0,35.4,29.91,SE,131,3.0,3.0,94,0.00,,,0.41,Wunderground v.1.15,2013-01-29 03:30:00,
2013-01-28 21:35:00,37.0,35.4,29.91,SE,134,3.0,6.0,94,0.00,,,0.41,Wunderground v.1.15,2013-01-29 03:35:00,
2013-01-28 21:40:00,37.0,35.4,29.91,SE,132,3.0,5.0,94,0.00,,,0.41,Wunderground v.1.15,2013-01-29 03:40:00,
2013-01-28 21:45:00,37.0,35.4,29.91,SE,131,4.0,5.0,94,0.00,,,0.41,Wunderground v.1.15,2013-01-29 03:45:00,
2013-01-28 21:55:00,37.0,35.4,29.91,SE,132,2.0,4.0,94,0.00,,,0.41,Wunderground v.1.15,2013-01-29 03:55:00,
2013-01-28 22:00:00,37.2,35.6,29.91,SE,132,3.0,3.0,94,0.00,,,0.41,Wunderground v.1.15,2013-01-29 04:00:00,
2013-01-28 22:04:00,37.2,35.6,29.91,SE,136,4.0,4.0,94,0.00,,,0.41,Wunderground v.1.15,2013-01-29 04:04:00,
2013-01-28 22:09:00,37.2,35.6,29.91,SE,134,4.0,4.0,94,0.00,,,0.41,Wunderground v.1.15,2013-01-29 04:09:00,
2013-01-28 22:14:00,37.2,35.6,29.91,SE,134,3.0,4.0,94,0.00,,,0.41,Wunderground v.1.15,2013-01-29 04:14:00,
2013-01-28 22:19:00,37.2,35.6,29.91,SE,134,3.0,3.0,94,0.00,,,0.41,Wunderground v.1.15,2013-01-29 04:19:00,
2013-01-28 22:24:00,37.2,35.6,29.91,SE,133,3.0,3.0,94,0.00,,,0.41,Wunderground v.1.15,2013-01-29 04:24:00,
2013-01-28 22:29:00,37.3,35.7,29.89,SE,134,4.0,4.0,94,0.00,,,0.41,Wunderground v.1.15,2013-01-29 04:29:00,
2013-01-28 22:34:00,37.3,35.7,29.89,SE,130,4.0,4.0,94,0.00,,,0.41,Wunderground v.1.15,2013-01-29 04:34:00,
2013-01-28 22:40:00,37.5,35.9,29.89,SE,128,4.0,4.0,94,0.00,,,0.41,Wunderground v.1.15,2013-01-29 04:40:00,
2013-01-28 22:45:00,37.5,35.9,29.89,SE,130,4.0,4.0,94,0.00,,,0.41,Wunderground v.1.15,2013-01-29 04:45:00,
2013-01-28 22:50:00,37.5,35.9,29.89,SE,131,3.0,6.0,94,0.00,,,0.41,Wunderground v.1.15,2013-01-29 04:50:00,
2013-01-28 22:54:00,37.6,36.0,29.89,SE,132,4.0,6.0,94,0.00,,,0.41,Wunderground v.1.15,2013-01-29 04:54:00,
2013-01-28 22:59:00,37.6,36.0,29.89,SE,144,4.0,7.0,94,0.00,,,0.41,Wunderground v.1.15,2013-01-29 04:59:00,
2013-01-28 23:04:00,37.8,36.2,29.87,SE,131,6.0,9.0,94,0.00,,,0.00,Wunderground v.1.15,2013-01-29 05:04:00,
2013-01-28 23:09:00,37.8,36.5,29.87,SE,138,6.0,6.0,95,0.00,,,0.00,Wunderground v.1.15,2013-01-29 05:09:00,
2013-01-28 23:14:00,37.8,36.5,29.87,SE,138,5.0,6.0,95,0.00,,,0.00,Wunderground v.1.15,2013-01-29 05:14:00,
2013-01-28 23:19:00,37.9,36.6,29.87,SE,140,4.0,4.0,95,0.00,,,0.00,Wunderground v.1.15,2013-01-29 05:19:00,
2013-01-28 23:25:00,37.9,36.6,29.87,SE,140,4.0,4.0,95,0.00,,,0.00,Wunderground v.1.15,2013-01-29 05:25:00,
2013-01-28 23:30:00,38.0,36.7,29.86,SE,139,4.0,4.0,95,0.00,,,0.00,Wunderground v.1.15,2013-01-29 05:30:00,
2013-01-28 23:34:00,38.0,36.7,29.86,SSE,148,3.0,4.0,95,0.00,,,0.00,Wunderground v.1.15,2013-01-29 05:34:00,
2013-01-28 23:39:00,38.0,36.7,29.86,SE,144,3.0,4.0,95,0.00,,,0.00,Wunderground v.1.15,2013-01-29 05:39:00,
2013-01-28 23:44:00,38.2,36.9,29.86,SE,144,4.0,4.0,95,0.00,,,0.00,Wunderground v.1.15,2013-01-29 05:44:00,
2013-01-28 23:49:00,38.3,37.0,29.85,SE,146,3.0,3.0,95,0.00,,,0.00,Wunderground v.1.15,2013-01-29 05:49:00,
2013-01-28 23:54:00,38.3,37.0,29.85,SE,136,3.0,5.0,95,0.00,,,0.00,Wunderground v.1.15,2013-01-29 05:54:00,
2013-01-28 23:59:00,38.5,37.2,29.83,SE,140,4.0,4.0,95,0.00,,,0.00,Wunderground v.1.15,2013-01-29 05:59:00,